User: anonymous   Login
Location: Corcelles
(46.1547°N, 4.7234°E)
Time: 11:48:09
(UTC+00:00)
Language:

Iridium 4 Rocket - Orbit

View from above orbital plane
View from above orbital plane
View from above satellite
View from above satellite

Ground track
Ground track

The orbit data is extracted from the following two-line orbital elements,

1 24797U 97020F   20270.80399266  .00000123  00000-0  21856-4 0  9993
2 24797  86.8899 274.6866 0222781 283.8667 251.4740 14.44189181230784
Epoch (UTC): 26 September 2020 19:17:44
Eccentricity: 0.0222781
inclination: 86.8899°
perigee height: 586 km
apogee height: 903 km
right ascension of ascending node: 274.6866°
argument of perigee: 283.8667°
revolutions per day: 14.44189181
mean anomaly at epoch: 251.4740°
orbit number at epoch: 23078

The dashed part of the orbit path shows where the satellite is in the earth's shadow,  

DLR